Regional Weather Roundup
Issued by NWS Memphis, TN

Home | Current Version | Previous Version | Text Only | Print | Product List | Glossary On
Versions: 1 2 3 4 5 6 7 8 9 10 11 12 13 14 15 16 17 18 19 20 21 22 23 24 25 26 27 28 29 30 31 32 33 34 35 36 37 38 39 40 41 42 43 44 45 46 47 48 49 50
000
ASUS44 KMEG 220810
RWRMEG
MEMPHIS CWA HOURLY WEATHER ROUNDUP
NATIONAL WEATHER SERVICE MEMPHIS TN
200 AM CST MON JAN 22 2018

...WEST TENNESSEE...

CITY           SKY/WX    TMP DP  RH WIND       PRES   REMARKS
MEMPHIS INTL   CLOUDY    63  49  60 S21G29    29.82F
NWS MEMPHIS      N/A     62 N/A N/A MISG        N/A
JACKSON        FAIR      61  47  59 S12G21    29.86F
COVINGTON      PTCLDY    61  48  63 S9G20     29.82F
SOMERVILLE     MOCLDY    63  48  59 S10G22    29.84F
BOLIVAR        CLOUDY    63  46  55 SE18G24   29.86F
LEXINGTON      CLOUDY    61  45  55 S10G16    29.93F
SELMER         CLOUDY    61  45  55 S15G22    29.92F
SAVANNAH       MOCLDY    61  45  55 S10       29.94F
DYERSBURG      FAIR      61  48  62 SE14G20   29.81F
UNION CITY     MOCLDY    61  46  59 S18G25    29.82F
PARIS          CLOUDY    59  46  63 S15G23    29.87F
HUNTINGDON     CLOUDY    61  46  59 S14G22    29.88F


...EASTERN ARKANSAS...

CITY           SKY/WX    TMP DP  RH WIND       PRES   REMARKS
JONESBORO      CLOUDY    61  55  81 S24G31    29.70F
WEST MEMPHIS   CLOUDY    61  53  75 S17       29.79F
BATESVILLE     TSTM      61  57  88 SW15G25   29.69R
NEWPORT        FAIR      61  56  83 S30G36    29.65F
WALNUT RIDGE   CLOUDY    60  55  83 S24G30    29.66F
BLYTHEVILLE    CLOUDY    60  57  89 S18       29.77F
SEARCY         HVY RAIN  59  59 100 SW22G35   29.75R FOG
STUTTGART      LGT RAIN  61  57  88 S30G38    29.75S
PINE BLUFF     LGT RAIN  63  59  87 S23G30    29.76R
MONTICELLO     LGT RAIN  64  58  80 S14G31    29.79F


...NORTH MISSISSIPPI...

CITY           SKY/WX    TMP DP  RH WIND       PRES   REMARKS
TUPELO         FAIR      59  45  59 SE10      29.95F
BATESVILLE     FAIR      62  45  52 SE12G17   29.87F
TUNICA           N/A     61  50  67 S20G25    29.82F
CLARKSDALE     CLOUDY    61  54  77 SE16G22   29.83S
CORINTH        CLOUDY    61  45  55 SE13      29.93F
GREENWOOD      FAIR      62  50  64 S17G24    29.88F
COLUMBUS       FAIR      60  47  63 S8        29.98S
STARKVILLE     FAIR      59  46  63 SE15      29.97F
GOLDEN TRIANGL FAIR      57  46  66 SE10      29.98F


...SOUTHEAST MISSOURI...

CITY           SKY/WX    TMP DP  RH WIND       PRES   REMARKS
KENNETT        CLOUDY    59  52  77 S15G25    29.73F
MALDEN         FAIR      59  50  72 SE24G33   29.73F
WEST PLAINS    RAIN      56  54  93 SW12G29   29.65R FOG
POPLAR BLUFF   CLOUDY    59  51  75 S18G31    29.69F
CAPE GIRARDEAU MOCLDY    57  47  69 S21G35    29.72F


...NORTHWEST ALABAMA...

CITY           SKY/WX    TMP DP  RH WIND       PRES   REMARKS
MUSCLE SHOALS  FAIR      57  43  59 S8        29.99S


...MIDDLE TENNESSEE...

CITY           SKY/WX    TMP DP  RH WIND       PRES   REMARKS
NASHVILLE      CLOUDY    58  43  57 S10       29.98F
CLARKSVILLE    MOCLDY    59  42  53 S9        29.94S
COLUMBIA       CLEAR     59  43  55 S10G18    29.96S


...WESTERN KENTUCKY...

CITY           SKY/WX    TMP DP  RH WIND       PRES   REMARKS
PADUCAH        FAIR      60  45  57 S17G31    29.80F
FORT CAMPBELL  FAIR      59  43  56 S10       29.93R


...CENTRAL ARKANSAS...

CITY           SKY/WX    TMP DP  RH WIND       PRES   REMARKS
LITTLE ROCK    TSTM      52  50  93 W10G31    29.78R FOG


SKY/WX REPORTED AS FAIR MEANS FEW OR NO CLOUDS BELOW
12 THOUSAND FEET.




USA.gov is the U.S. government's official web portal to all federal, state and local government web resources and services.